Location: Barcelona
(41.3829°N, 2.1774°E)
Time: 07:17:07
(UTC+00:00)

ISS - Pass Details

Date: 07 September 2024
Orbit: 414 x 424 km, 51.6° (Epoch: 16 September)

Event Time Altitude Azimuth Distance (km) Brightness Sun altitude
Exits shadow 02:51:39 21° 73° (ENE) 974 -1.3 -27.0°
Drops below altitude 10° 02:53:10 10° 91° (E) 1,476 -0.4 -26.8°
Enters shadow 03:57:14 -54° 307° (NW) 10,831 3.3 -16.4°
Maximum altitude 04:26:49 35° 223° (SW) 683 -3.1 -11.2°
